ALTAIR (RS65S)

Last updated on Mon Nov 03 2025 00:03:22 GMT+0000 (Coordinated Universal Time)

1 61779U 24199AW 25306.57578123 .00010577 00000+0 34749-3 0 9998 2 61779 97.3314 172.7747 0016043 43.4129 316.8373 15.31618197102366
UTC large
Height (km)
Speed (km/s)
/
Latitude / Longitude
Inclination (degrees)
Orbital Period (minutes)
Azimuth
Elevation
Range (km)
Doppler Factor

Next 0 passes for location: London (51.5072 / 0.1276)

Sorry there are no passes over London.